Dubuque, IA

2:01 AM CST on December 13, 2017 (GMT -0600)
Dubuque Regional

Weather History for KDBQ - October, 2012

Change the Weather History Date:

Monday, October 8, 2012

  Actual Average Record
Temperature  
Mean Temperature 46 °F 53 °F  
Max Temperature 62 °F 63 °F 86 °F (1949)
Min Temperature 30 °F 42 °F 22 °F (1952)
Degree Days  
Heating Degree Days 19 13  
Month to date heating degree days 135 91  
Since 1 July heating degree days 351 269  
Cooling Degree Days 0 0  
Month to date cooling degree days 0 4  
Year to date cooling degree days 902 641  
Moisture  
Dew Point 28 °F    
Average Humidity 57    
Maximum Humidity 78    
Minimum Humidity 35    
Precipitation  
Precipitation 0.00 in 0.09 in 1.13 in (1958)
Month to date precipitation T 0.72  
Year to date precipitation 17.92 30.16  
Snow  
Snow 0.00 in 0.00 in - ()
Month to date snowfall 0.0 0.0  
Since 1 July snowfall 0.0 0.0  
Since 1 September snowfall 0.0 0.0  
Snow Depth 0.00 in    
Sea Level Pressure  
Sea Level Pressure 29.99 in    
Wind  
Wind Speed 18 mph (SSW)    
Max Wind Speed 31 mph    
Max Gust Speed 37 mph    
Visibility 10 miles    
Events      
T = Trace of Precipitation, MM = Missing Value Source: NWS Daily Summary

Daily Weather History Graph

Daily Weather History Graph

Search for Another Location

Airport or City:

Trip Planner

Search our weather history database for the weather conditions in past years. The results will help you decide how hot, cold, wet, or windy it might be!

Date:

Astronomy

Oct. 08, 2012 Rise Set
Actual Time 7:08 AM CDT 6:31 PM CDT
Civil Twilight 6:40 AM CDT 6:59 PM CDT
Nautical Twilight 6:07 AM CDT 7:32 PM CDT
Astronomical Twilight 5:34 AM CDT 8:04 PM CDT
Moon No Moon Rise 2:28 PM CDT (10/8)
Length of Visible Light 12h 19m
Length of Day
11h 23m
Last Quarter, 46% of the Moon is Illuminated
Oct 8
Last Quarter
Oct 15
New
Oct 21
First Quarter
Oct 29
Full
Nov 6
Last Quarter

Hourly Weather History & Observations

Time (CDT) Temp. Windchill Dew Point Humidity Pressure Visibility Wind Dir Wind Speed Gust Speed Precip Events Conditions
12:53 AM 32.0 °F 25.6 °F 19.0 °F 59% 30.10 in 10.0 mi South 6.9 mph - N/A   Clear
1:53 AM 32.0 °F 24.2 °F 21.0 °F 64% 30.10 in 10.0 mi South 9.2 mph - N/A   Clear
2:53 AM 30.9 °F 23.5 °F 21.9 °F 69% 30.08 in 10.0 mi SSW 8.1 mph - N/A   Clear
3:53 AM 30.9 °F 22.8 °F 21.9 °F 69% 30.07 in 10.0 mi South 9.2 mph - N/A   Clear
4:53 AM 30.9 °F 22.8 °F 23.0 °F 72% 30.06 in 10.0 mi SSW 9.2 mph - N/A   Clear
5:53 AM 30.0 °F 22.4 °F 23.0 °F 75% 30.07 in 10.0 mi South 8.1 mph - N/A   Clear
6:53 AM 30.9 °F 23.5 °F 24.1 °F 76% 30.06 in 10.0 mi South 8.1 mph - N/A   Clear
7:53 AM 33.1 °F 23.9 °F 26.1 °F 75% 30.07 in 10.0 mi South 12.7 mph - N/A   Clear
8:53 AM 39.0 °F 30.6 °F 28.0 °F 65% 30.06 in 10.0 mi South 15.0 mph - N/A   Clear
9:53 AM 46.0 °F 39.3 °F 30.0 °F 54% 30.05 in 10.0 mi South 16.1 mph - N/A   Clear
10:53 AM 53.1 °F - 32.0 °F 45% 30.02 in 10.0 mi SSW 23.0 mph 33.4 mph N/A   Clear
11:53 AM 57.0 °F - 33.1 °F 40% 29.99 in 10.0 mi SSW 23.0 mph 33.4 mph N/A   Clear
12:53 PM 59.0 °F - 33.1 °F 38% 29.97 in 10.0 mi SSW 24.2 mph 36.8 mph N/A   Clear
1:53 PM 60.1 °F - 33.1 °F 36% 29.94 in 10.0 mi SSW 25.3 mph 34.5 mph N/A   Clear
2:53 PM 60.1 °F - 33.1 °F 36% 29.92 in 10.0 mi SSW 26.5 mph 33.4 mph N/A   Clear
3:53 PM 60.1 °F - 32.0 °F 35% 29.90 in 10.0 mi SSW 21.9 mph 35.7 mph N/A   Clear
4:53 PM 60.1 °F - 32.0 °F 35% 29.90 in 10.0 mi SSW 25.3 mph 35.7 mph N/A   Clear
5:53 PM 57.0 °F - 30.9 °F 37% 29.89 in 10.0 mi SSW 20.7 mph 27.6 mph N/A   Clear
6:53 PM 55.0 °F - 30.9 °F 40% 29.89 in 10.0 mi South 18.4 mph - N/A   Clear
7:53 PM 54.0 °F - 30.0 °F 40% 29.91 in 10.0 mi South 19.6 mph - N/A   Partly Cloudy
8:53 PM 53.6 °F - 30.2 °F 41% 29.89 in 10.0 mi South 23.0 mph 27.6 mph N/A   Mostly Cloudy
9:53 PM 51.1 °F - 30.9 °F 46% 29.90 in 10.0 mi South 19.6 mph 26.5 mph N/A   Clear
10:53 PM 51.1 °F - 32.0 °F 48% 29.89 in 10.0 mi SSW 20.7 mph - N/A   Clear
11:53 PM 52.0 °F - 32.0 °F 47% 29.88 in 10.0 mi SSW 19.6 mph - N/A   Clear